Regional Weather Roundup
Issued by NWS

Home | Current Version | Previous Version | Graphics & Text | Print | Product List | Glossary On
Versions: 1 2 3 4 5 6 7 8 9 10 11 12 13 14 15 16 17 18 19 20 21 22 23 24 25 26 27 28 29 30 31 32 33 34 35 36 37 38 39 40 41 42 43 44 45 46 47 48 49 50
000
ASUS43 KMPX 290710
RWRMN
WEATHER ROUNDUP FOR MINNESOTA
NATIONAL WEATHER SERVICE TWIN CITIES/CHANHASSEN MN
100 AM CST MON DEC 29 2014


NOTE: "FAIR" INDICATES FEW OR NO CLOUDS BELOW 12,000 FEET WITH NO
SIGNIFICANT WEATHER AND/OR OBSTRUCTIONS TO VISIBILITY. N/A MEANS
CURRENT SKY AND/OR WEATHER CONDITIONS ARE NOT AVAILABLE.

MNZ060>063-068>070-290800-
   Twin Cities Metro

CITY           SKY/WX    TMP DP  RH WIND       PRES   REMARKS
TWIN CITIES    CLOUDY    10  -1  61 N10       30.40R WCI  -4
ST PAUL        CLOUDY     9  -1  64 N8        30.42R WCI  -3
CRYSTAL        CLOUDY     8  -1  66 N5        30.40R WCI   0
BLAINE         MOCLDY     7   1  78 CALM      30.39S
LAKEVILLE      CLOUDY    10   1  67 N5        30.38R WCI   2
EDEN PRAIRIE   CLOUDY    11  -1  58 N9        30.38S WCI  -2
SOUTH ST PAUL  CLOUDY    11  -1  58 N7        30.40S WCI   1
LAKE ELMO      FAIR       9   0  66 N3        30.40R
$$
MNZ001>005-007-008-013>017-022>024-027-028-290800-
   Northwest Minnesota

CITY           SKY/WX    TMP DP  RH WIND       PRES   REMARKS
BEMIDJI        CLEAR    -10 -14  81 NW6       30.41S WCI -23
HALLOCK        PTCLDY   -11 -18  70 N10       30.55R WCI -30
ROSEAU         PTCLDY   -11 -18  70 NW6       30.49R WCI -25
WARROAD        PTCLDY   -13 -18  77 NW5       30.47R WCI -25
THIEF RVR FALL PTCLDY    -9 -15  77 NW5       30.48R WCI -21
CROOKSTON      PTCLDY    -9 -15  77 N9        30.54R WCI -27
FOSSTON        PTCLDY   -11 -17  77 NW5       30.47R WCI -23
DETROIT LAKES    N/A     -6  -9  84 N10       30.44R WCI -23
MOORHEAD       CLEAR     -4  -8  84 N14       30.52R WCI -24
PARK RAPIDS    CLEAR     -6 -10  83 NW6       30.40R WCI -19
MAHNOMEN       FAIR      -8 -12  80 N6        30.46R WCI -21
$$
MNZ006-009>011-018-025>026-290800-
   North Central Minnesota

CITY           SKY/WX    TMP DP  RH WIND       PRES   REMARKS
BAUDETTE       CLEAR    -12 -18  74 NW12      30.43R WCI -32
FLAG ISLAND    MOCLDY   -15 -18  84 NW14      30.45R WCI -38
INTL FALLS     CLEAR    -11 -17  75 NW9       30.40R WCI -29
WASKISH        CLEAR     -9 -15  77 CALM      30.43R
BIG FORK       CLEAR     -8 -13  77 CALM      30.39R
LONGVILLE      CLEAR     -4  -8  84 CALM      30.40R
GRAND RAPIDS   CLEAR     -4  -9  77 NW8       30.36R WCI -19
CRANE LAKE     CLEAR     -9 -15  77 CALM      30.41R
ORR            CLEAR     -9 -15  77 NW7       30.33S WCI -24
COOK           CLEAR     -9 -15  77 CALM      30.36R
WALKER         FAIR      -7 -11  81 NW5       30.41R WCI -18
$$
MNZ012-019>021-037-290800-
   Northeast Minnesota

CITY           SKY/WX    TMP DP  RH WIND       PRES   REMARKS
DULUTH         CLEAR     -2  -9  72 NW9       30.32R WCI -18
ELY            CLEAR     -9 -15  77 W3        30.33R
HIBBING        CLEAR     -6 -13  71 NW5       30.36R WCI -17
EVELETH        CLEAR     -2  -8  78 NW9       30.35R WCI -18
DULUTH HARBOR  CLEAR      3  -6  66 NW12      30.43R WCI -13
TWO HARBORS    CLEAR      0  -8  71 CALM      30.33R
SILVER BAY     CLEAR      0  -9  65 CALM      30.31R
GRAND MARAIS     N/A      0  -8  69 CALM      30.37R
G MARAIS ARPRT PTCLDY    -9 -17  70 NW10      30.19S WCI -28
$$
MNZ029>031-032-039>041-046>048-054>057-064-290800-
   West Central Minnesota

CITY           SKY/WX    TMP DP  RH WIND       PRES   REMARKS
FERGUS FALLS   CLEAR     -2  -9  71 N8        30.49R WCI -17
WHEATON        MOCLDY    -2  -8  78 NW10      30.50R WCI -19
MORRIS         PTCLDY     3   0  85 NW12      30.42R WCI -13
ALEXANDRIA     PTCLDY     5  -3  69 N10       30.39R WCI -10
ELBOW LAKE     FAIR       1  -3  80 N8        30.43R WCI -12
WADENA         CLEAR     -2  -6  84 NW3       30.40S
GLENWOOD       PTCLDY     5   0  78 N6        30.39R WCI  -6
APPLETON       CLOUDY     9   3  78 N15       30.43S WCI  -8
BENSON         CLOUDY    10   3  72 N7        30.41S WCI   0
ORTONVILLE     CLOUDY     3  -2  78 N15       30.43S WCI -15
MADISON        MOCLDY    10   3  72 N14       30.42F WCI  -5
WILLMAR        FAIR      12   3  67 N6        30.40S WCI   3
$$
MNZ033>034-036-042>043-049>051-058-059-290800-
   Central Minnesota

CITY           SKY/WX    TMP DP  RH WIND       PRES   REMARKS
ST CLOUD       MOCLDY     9  -1  64 N5        30.40R WCI   1
SAUK CENTRE    PTSUNNY    4  -2  77 N3        30.40R
PAYNESVILLE    CLOUDY     6  -1  74 N6        30.40R WCI  -5
AITKIN         CLEAR      1  -6  71 NW5       30.38R WCI  -8
PINE RIVER     CLEAR     -2  -8  78 NW6       30.43R WCI -14
BRAINERD       CLEAR      1  -5  75 N7        30.40R WCI -12
STAPLES        CLEAR     -2  -8  78 N8        30.41R WCI -17
LONG PRAIRIE   FAIR       3  -4  72 NW5       30.40R WCI  -6
LITTLE FALLS   PTCLDY     3  -4  72 CALM      30.41R
LITCHFIELD     CLOUDY    10   3  72 N8        30.39S WCI  -1
BUFFALO        CLOUDY     8   1  73 N3        30.41S
MAPLE LAKE     CLOUDY     9   4  79 N3        30.40S
$$
MNZ037-044-045-052-053-290800-
   East Central Minnesota

CITY           SKY/WX    TMP DP  RH WIND       PRES   REMARKS
PRINCETON      PTCLDY     7   0  72 N5        30.39S WCI  -2
MORA           CLEAR      5  -4  66 CALM      30.41R
CAMBRIDGE      PTCLDY     9  -2  61 N3        30.39R
RUSH CITY      MOCLDY     4  -2  75 CALM      30.41R
MOOSE LAKE     CLEAR      1  -6  71 N5        30.38R WCI  -8
HINCKLEY       FAIR       5   0  78 CALM      30.40R
CLOQUET        CLEAR     -2  -9  71 NW8       30.35R WCI -17
MCGREGOR       CLEAR      1  -4  78 NW6       30.39R WCI -10
$$
MNZ071>073-080-081-089-090-097-098-290800-
   Southwest Minnesota

CITY           SKY/WX    TMP DP  RH WIND       PRES   REMARKS
MONTEVIDEO     CLOUDY    10   7  85 N8        30.42S WCI  -1
GRANITE FALLS  CLOUDY    13   7  77 N9        30.41S WCI   0
CANBY          CLOUDY     6   3  84 N14       30.41S WCI -10
MARSHALL       CLOUDY    10   3  72 N16       30.37S WCI  -7
REDWOOD FALLS  CLOUDY    14   5  67 N7        30.38S WCI   4
OLIVIA         CLOUDY    14   9  79 N7        30.38S WCI   4
PIPESTONE      FLURRIES  10   7  85 NE10G17   30.30R WCI  -3
WINDOM         FLURRIES  16   9  73 N13       30.32S WCI   2
WORTHINGTON    CLOUDY    12 -29  14 N15       30.30S WCI  -4
JACKSON        LGT SNOW  19  16  86 NE10      30.30S WCI   8
TRACY          LGT SNOW  12   9  85 N12       30.35S WCI  -2
SLAYTON        CLOUDY    10   7  88 N10       30.32S WCI  -4
$$
MNZ065>067-074>077-082>085-091>093-290800-
   South Central Minnesota

CITY           SKY/WX    TMP DP  RH WIND       PRES   REMARKS
MANKATO        CLOUDY    12   3  67 N8        30.35R WCI   1
NEW ULM        CLOUDY    12   3  67 NE9       30.36S WCI   0
ST JAMES       CLOUDY    16  12  86 N8        30.36R WCI   5
FAIRMONT       CLOUDY    18  12  79 N8        30.32S WCI   7
GLENCOE        MOCLDY    11   4  71 N3        30.38S
FARIBAULT      CLOUDY    12   5  73 N10       30.34F WCI  -1
OWATONNA       CLOUDY    12   5  73 N8        30.32S WCI   1
WASECA         CLOUDY    14   7  73 NE10      30.35R WCI   1
ALBERT LEA     CLOUDY    16  12  86 N6        30.30R WCI   7
$$
MNZ078>079-086>088-094>096-290800-
   Southeast Minnesota

CITY           SKY/WX    TMP DP  RH WIND       PRES   REMARKS
ROCHESTER      CLOUDY    13   9  84 N12       30.30R WCI  -1
RED WING       CLOUDY    10   1  67 CALM      30.37S
STANTON        CLOUDY    11   6  81 N5        30.36R WCI   3
DODGE CENTER   CLOUDY    12   9  85 N10       30.30S WCI  -1
WINONA         CLOUDY    14  12  92 NW5       30.36S WCI   6
AUSTIN         CLOUDY    16  10  79 NE6       30.30R WCI   7
PRESTON        CLOUDY    14  11  90 N3        30.30R
$$
ABBREVIATIONS USED IN REMARKS
   TC - TEMPERATURES IN CELSIUS
  WCI - WIND CHILL INDEX
   HX - HEAT INDEX
  VSB - VISIBILITY
$$



USA.gov is the U.S. government's official web portal to all federal, state and local government web resources and services.